Theta_e
300 300 300 300 300 300 300 300 300 300 300 300 301 300 299 300 300 298 293 295 289 284 285 285 286 282 282 281 278 277 278 276 277 274 272 271 269 271 270 272 272 271 270 268 266 265 265 278 276 273 278 281 281 280
298 298 299 300 300 300 300 300 300 300 300 300 300 301 300 299 300 299 291 295 295 286 286 289 289 290 288 287 284 279 281 275 280 276 274 274 269 268 271 267 275 269 274 271 270 272 279 279 279 282 283 281 281 281
296 297 297 298 298 299 300 300 300 300 300 300 300 300 300 300 299 298 294 294 291 285 284 284 285 288 290 289 291 281 280 283 281 284 279 276 271 273 270 269 273 276 278 273 274 277 278 280 282 282 283 282 283 283
296 296 296 297 297 297 298 299 299 299 300 300 300 300 299 299 300 299 292 293 291 285 281 282 286 286 291 290 289 288 287 285 285 283 279 276 273 277 274 275 274 277 276 274 274 277 278 280 281 282 282 283 280 277
295 295 296 296 296 296 297 297 298 298 299 299 299 299 299 299 299 298 294 294 294 286 280 281 283 285 288 289 287 287 286 284 282 279 278 276 279 277 278 277 275 278 276 274 272 278 278 279 282 282 279 279 275 273
294 295 295 295 296 296 296 296 297 298 298 298 298 298 299 298 298 291 284 291 294 292 282 277 285 281 284 286 286 285 285 284 283 280 279 280 282 278 274 272 278 280 281 281 278 281 281 282 281 277 275 273 271 270
293 294 294 294 295 295 296 296 296 296 297 297 297 298 298 298 295 285 285 289 294 292 282 277 277 279 279 282 283 283 284 283 282 280 279 279 279 279 276 272 278 279 280 280 281 280 278 278 276 272 271 269 268 266
292 292 293 293 294 294 295 295 295 296 296 296 296 297 297 297 296 290 290 294 293 286 284 276 275 274 276 276 277 281 280 281 281 279 279 277 279 278 272 277 279 279 279 279 279 272 272 271 270 267 266 265 264 264
291 291 292 292 293 293 294 294 294 295 295 296 296 296 294 291 285 286 294 294 291 286 278 277 273 271 274 275 277 277 279 275 280 276 277 277 275 271 275 276 277 278 276 274 268 267 267 267 266 264 263 262 262 262
290 290 290 291 291 292 292 292 293 294 294 295 292 285 282 285 294 293 288 284 282 282 281 275 274 273 276 275 274 275 276 274 270 273 276 273 272 277 276 274 268 266 266 267 265 264 263 264 263 262 261 261 261 261
290 290 290 290 290 290 291 291 292 293 293 287 284 283 286 293 285 282 277 277 277 275 278 275 275 271 275 272 272 276 273 274 268 271 271 269 267 274 267 263 264 263 263 261 262 261 261 260 260 260 260 259 259 258
289 289 289 289 289 290 290 291 291 289 286 287 286 286 286 281 278 274 273 275 273 271 269 271 272 277 275 278 274 274 270 271 267 265 267 264 270 265 263 261 260 260 259 258 258 258 258 258 258 257 257 256 255 256
288 288 289 289 289 289 290 290 291 291 290 285 282 278 278 277 271 269 267 266 267 265 267 269 270 274 275 276 274 272 269 267 265 265 264 267 266 259 258 257 256 256 255 255 255 255 255 255 255 255 254 254 253 252
288 288 289 289 289 289 289 290 290 290 285 278 275 271 271 270 271 268 269 268 271 270 267 269 268 271 273 272 273 268 268 265 263 260 263 269 261 256 256 255 254 253 252 253 253 253 253 253 253 253 252 252 250 250
288 288 288 288 289 289 289 289 290 287 283 276 275 268 270 265 262 259 257 267 266 271 271 268 268 271 268 270 270 266 262 262 263 263 267 260 255 254 253 253 252 251 252 251 251 250 250 251 250 250 250 249 249 248
287 285 283 288 289 289 289 288 286 284 281 276 270 267 260 265 263 259 261 263 261 270 270 270 267 266 266 267 265 263 264 261 266 264 257 253 251 251 251 251 251 250 249 249 249 248 249 247 248 250 248 248 249 250
284 277 286 287 288 286 287 283 277 269 269 267 264 261 260 261 263 260 262 264 267 270 268 266 263 264 267 265 263 263 262 268 259 253 252 253 253 252 250 248 248 247 247 247 247 247 247 248 244 246 250 254 253 255
277 280 285 286 281 278 270 269 269 267 261 258 263 258 258 256 257 257 260 264 268 268 267 267 267 262 261 260 261 263 255 250 250 252 252 250 248 247 247 249 247 246 247 246 246 246 246 247 251 253 252 255 256 258
279 281 285 285 278 269 266 264 264 260 255 255 256 257 256 256 257 257 258 260 260 261 265 266 265 262 263 261 259 253 251 253 252 250 250 246 246 246 245 245 246 247 247 248 250 252 252 250 252 254 255 256 256 257
281 280 280 279 278 269 263 260 263 259 255 254 255 254 254 253 254 254 255 257 260 263 264 262 262 257 256 253 251 252 252 250 250 249 250 249 248 245 248 249 251 249 250 250 251 252 253 254 255 255 255 255 255 255
274 274 276 270 265 262 260 258 255 255 254 253 253 253 251 253 252 252 253 254 260 260 258 251 250 247 246 246 246 248 249 249 251 252 251 250 248 249 249 249 248 250 251 251 251 252 253 253 254 254 254 254 254 255
267 273 268 271 263 256 255 257 255 256 253 251 252 253 251 249 247 249 249 255 254 250 250 250 249 248 248 247 244 243 244 242 241 247 247 249 250 250 250 251 251 251 251 252 253 253 253 254 254 254 253 253 253 254
266 266 263 262 259 258 254 256 253 250 251 251 252 253 251 250 250 251 254 250 248 244 242 243 241 237 241 238 237 239 238 243 247 247 247 248 248 249 251 252 252 252 252 253 254 253 253 254 254 253 253 253 252 252
260 253 252 252 251 248 249 248 252 248 246 249 252 250 249 249 248 251 251 245 247 241 241 239 239 243 243 242 244 243 243 242 245 245 245 248 250 251 253 253 254 254 254 254 253 253 253 253 253 253 253 252 252 251
255 245 247 246 246 247 246 246 251 253 249 242 246 246 244 241 248 246 246 245 242 241 241 237 239 241 245 243 243 243 240 246 248 248 248 249 251 253 253 254 254 255 255 253 253 253 253 253 252 252 252 251 251 251
243 239 242 237 243 246 242 246 246 247 248 248 245 241 241 246 249 248 244 244 241 241 241 243 244 243 246 247 248 247 248 247 248 250 252 253 253 253 253 253 253 254 254 254 253 252 252 252 251 251 251 251 251 251
242 240 239 238 241 243 241 238 239 242 241 243 240 242 242 245 245 246 244 241 243 242 242 245 248 249 248 247 246 246 248 251 252 253 254 254 255 255 254 253 253 255 255 253 252 251 251 251 251 251 250 251 251 251
238 236 240 239 238 234 238 236 238 240 240 239 239 243 245 245 246 245 244 244 243 244 243 245 247 248 247 248 248 251 253 253 252 253 253 253 253 254 253 254 254 258 253 253 253 252 251 251 251 251 251 250 251 252
237 234 235 239 237 239 238 239 239 237 238 236 242 243 244 243 242 242 247 245 241 243 244 247 247 245 248 249 250 250 251 252 253 251 250 251 252 253 252 252 252 252 253 253 255 257 254 252 252 251 251 251 251 249
239 235 241 239 241 241 239 236 236 233 234 236 236 241 243 243 243 240 242 241 244 244 244 245 247 250 249 250 250 251 249 248 249 250 248 249 251 249 248 250 251 251 250 249 250 251 253 252 249 246 248 249 248 248
233 232 238 238 240 236 233 230 228 229 230 230 227 234 238 239 242 243 244 244 245 246 248 248 249 250 251 251 248 245 248 244 240 245 247 249 250 250 250 250 250 249 248 247 247 247 247 247 246 245 246 246 246 247
234 232 236 240 239 233 229 229 228 231 230 234 237 235 242 243 248 249 248 246 247 247 249 249 250 251 250 250 245 241 246 245 249 251 251 252 252 252 252 252 250 248 247 247 247 247 246 245 247 247 248 248 247 247
239 238 240 242 243 244 240 238 240 240 238 238 237 232 232 237 245 247 245 241 243 243 246 246 247 247 248 247 248 250 252 252 253 256 257 257 256 255 254 253 251 249 248 248 249 249 247 247 248 248 248 248 248 248
Wind_Speed
19 20 20 20 20 21 21 22 22 22 21 22 22 22 22 21 18 11 3 9 8 5 6 10 13 6 5 6 6 5 4 2 3 7 5 5 6 6 4 5 4 6 6 5 1 4 11 5 7 7 1 9 10 12
20 18 16 19 22 22 22 22 23 22 22 21 20 22 22 19 20 17 4 8 10 5 3 5 12 16 16 12 8 6 6 6 7 5 6 3 4 3 6 9 6 9 10 6 10 7 3 6 7 11 15 15 17 14
18 20 21 20 17 20 22 23 22 24 23 24 22 22 23 23 22 17 6 6 5 2 3 5 8 12 13 15 13 8 4 8 5 4 4 4 8 5 7 10 13 16 15 13 13 19 19 19 19 19 19 16 14 11
18 20 20 21 21 20 20 22 22 22 23 23 23 24 22 20 24 20 6 6 4 1 5 8 2 7 8 15 17 15 15 3 4 4 5 6 6 9 8 11 13 12 5 10 15 20 18 21 18 21 20 14 4 1
19 20 21 22 23 22 22 21 22 21 22 22 23 21 22 21 21 14 6 7 9 6 2 3 4 6 9 14 18 16 14 10 5 5 6 9 8 8 9 10 15 13 18 13 16 21 16 22 17 12 10 7 2 1
20 20 22 24 22 24 22 22 21 21 21 20 20 21 22 22 21 4 4 6 10 8 3 5 2 4 6 13 15 16 15 11 8 5 5 6 10 7 7 12 20 15 15 17 20 22 18 21 10 2 6 5 3 1
17 19 19 19 21 21 21 22 22 22 22 21 21 21 21 22 12 5 4 4 19 9 3 4 5 0 2 4 4 6 9 6 6 5 6 7 8 8 5 10 20 14 15 18 19 15 16 10 6 6 4 3 3 1
19 19 18 18 18 19 19 20 20 20 21 20 20 21 22 23 20 11 5 12 15 5 4 4 3 1 2 4 5 4 5 5 5 4 3 7 4 5 9 16 16 16 18 17 12 2 2 7 7 5 3 1 2 3
21 20 20 17 16 15 16 18 18 18 18 18 18 19 11 9 5 3 22 25 6 5 5 5 6 5 4 2 1 2 4 5 3 6 8 6 7 9 12 14 16 18 8 3 5 4 4 3 4 4 1 0 3 3
16 15 16 17 18 16 16 14 15 17 17 16 7 4 5 5 15 15 11 8 8 6 5 5 2 5 5 6 6 5 4 4 5 7 4 7 13 16 8 5 4 4 4 4 4 3 3 4 4 3 3 3 4 5
18 17 18 17 17 17 16 17 15 14 14 4 5 4 1 12 3 5 5 5 3 6 6 4 9 6 5 5 6 5 3 4 5 4 6 4 6 10 6 6 5 6 5 5 5 5 4 3 1 4 5 4 5 7
17 18 18 17 19 21 19 17 17 8 3 4 3 4 3 3 4 6 8 6 6 7 4 7 6 6 4 3 4 5 5 4 6 3 3 4 5 4 7 6 6 5 5 4 3 3 2 1 2 4 5 6 7 7
17 18 21 22 21 19 20 18 18 15 7 2 4 5 4 5 8 9 11 3 4 5 7 6 5 5 4 4 4 5 6 6 4 4 5 6 2 4 5 6 6 4 4 3 2 3 3 4 4 4 6 6 6 6
18 19 19 21 22 20 18 20 18 13 5 6 5 9 8 5 7 6 6 7 5 5 9 6 4 4 3 6 3 5 2 4 4 4 7 4 3 6 5 4 4 3 2 1 3 3 5 5 6 6 7 6 5 7
19 20 21 19 21 21 18 19 20 6 3 5 5 6 5 1 0 1 1 2 1 5 10 4 3 3 3 4 4 5 4 6 6 6 4 2 5 6 6 4 3 1 1 2 2 4 6 6 5 7 6 5 6 7
10 2 5 11 16 19 16 13 6 4 2 4 2 4 2 2 1 1 2 3 2 6 3 4 5 4 5 4 6 8 6 8 6 4 3 6 6 5 4 4 3 2 2 3 4 3 5 5 5 7 7 7 6 5
11 3 15 8 12 18 3 3 3 4 2 2 2 2 1 2 2 3 2 3 2 2 4 4 6 8 4 4 5 5 7 4 2 3 3 3 5 5 4 4 2 1 2 3 3 3 4 4 4 3 5 6 6 6
3 6 13 3 7 6 4 6 4 4 5 2 2 1 1 1 2 2 1 1 3 2 3 3 5 3 6 8 5 4 2 2 1 4 4 3 3 3 2 2 1 2 2 3 3 3 3 3 4 4 5 5 6 4
5 8 8 6 7 6 4 4 4 4 2 1 2 2 2 2 3 2 1 2 3 2 2 2 3 4 5 2 0 2 3 3 4 4 2 2 2 4 3 2 2 1 2 2 1 2 2 3 3 4 4 4 4 3
7 11 11 17 8 4 5 3 3 4 3 2 1 2 2 2 2 2 2 4 2 1 1 2 3 1 1 1 1 0 3 6 5 3 2 2 3 3 3 2 2 1 0 1 1 1 2 1 2 4 4 4 4 4
6 5 11 7 5 6 5 3 4 2 2 3 1 2 2 2 3 3 2 4 0 1 2 1 0 0 2 2 2 0 5 4 3 1 3 4 3 2 2 2 2 1 1 1 0 1 2 2 3 4 4 4 4 4
1 7 3 5 5 5 6 4 4 2 4 1 2 2 2 3 3 3 3 0 1 1 1 1 2 1 1 2 1 1 3 5 4 3 2 5 4 3 2 2 3 2 1 1 1 1 2 2 3 3 3 4 4 3
6 5 5 6 6 6 2 1 4 4 3 1 1 3 2 0 1 3 2 2 2 2 2 2 1 1 2 2 1 1 2 4 3 2 2 2 2 2 2 3 2 2 1 2 1 2 2 3 3 3 3 4 4 4
11 9 7 5 5 1 2 4 2 3 3 3 3 3 2 0 3 1 2 2 1 1 1 2 3 2 1 2 1 1 1 2 2 1 2 3 2 2 3 2 3 3 2 1 1 2 2 2 3 3 3 4 4 4
8 11 6 7 4 5 6 4 3 2 2 1 2 1 1 2 2 1 2 3 2 2 2 1 1 1 3 1 1 2 3 3 3 3 3 3 2 1 1 2 2 3 3 2 2 2 2 2 2 3 4 4 6 7
10 5 5 1 4 3 1 2 3 2 2 2 1 2 2 2 3 1 3 3 2 3 4 5 4 1 0 3 3 2 3 5 3 1 2 4 4 3 2 2 2 2 5 4 3 3 4 3 4 5 6 7 7 7
7 5 4 1 0 1 3 2 1 3 3 1 2 2 3 4 0 4 3 2 1 3 3 3 4 3 3 3 3 3 2 5 4 1 0 1 3 3 4 4 5 3 3 5 5 5 5 5 6 6 7 7 6 6
3 3 3 5 2 1 4 2 2 2 1 1 2 2 3 4 3 3 3 2 3 3 2 1 2 2 2 2 2 3 2 2 2 3 3 4 4 4 5 4 4 6 3 4 5 5 6 6 7 7 7 8 9 5
3 3 0 4 3 4 2 2 2 2 1 2 2 1 2 3 2 1 2 2 2 1 2 2 0 0 2 2 2 1 2 2 1 2 2 3 3 2 1 2 3 3 3 4 9 10 9 8 8 8 10 8 7 4
4 3 2 1 2 2 2 1 2 2 1 1 2 3 3 3 3 1 2 2 2 0 2 2 2 3 2 2 1 3 2 3 4 4 3 3 4 2 2 2 3 3 3 3 6 6 8 6 6 4 4 5 5 6
2 2 2 1 1 2 2 2 2 1 2 1 1 2 3 4 5 2 2 1 1 1 1 1 1 1 2 2 2 0 4 2 4 6 5 4 5 5 5 5 5 4 4 5 5 5 6 5 5 7 8 9 10 8
3 3 2 4 4 3 2 3 1 2 3 3 2 2 3 2 3 2 0 0 1 1 3 2 2 3 3 2 2 3 4 4 4 5 7 5 6 7 6 5 4 4 5 6 6 6 7 8 8 8 9 11 11 10
2 2 1 2 2 3 3 3 3 3 3 3 3 1 1 0 1 4 2 2 3 3 3 3 3 3 4 5 5 4 5 5 7 11 12 13 13 12 7 6 6 5 7 7 7 7 9 10 10 11 11 11 11 11
Wind_Direction
260 258 258 253 248 249 247 243 240 237 238 236 232 225 226 231 227 217 159 192 187 211 213 206 201 162 153 179 180 160 146 171 174 203 202 201 219 204 218 247 232 252 249 204 157 249 265 160 127 224 281 295 295 280
261 264 263 266 258 248 246 247 246 243 236 240 240 234 230 232 229 210 215 183 191 213 260 225 225 223 213 195 201 198 201 161 177 184 208 193 206 189 218 256 202 250 225 254 216 245 251 185 249 248 284 284 282 285
261 262 267 264 266 265 257 252 247 241 245 242 241 232 229 223 227 222 211 152 197 236 230 205 214 223 226 212 208 217 226 201 201 186 167 212 236 177 228 235 257 256 256 242 262 253 257 263 262 268 277 276 280 286
255 260 263 266 264 262 264 260 251 248 241 250 238 235 239 234 226 221 199 168 189 172 246 249 34 217 203 209 217 218 230 182 223 187 201 211 226 197 227 242 236 243 242 239 252 261 272 263 264 268 273 277 271 73
256 257 256 260 261 262 259 258 257 248 243 241 241 237 233 235 233 214 196 191 191 194 295 301 309 227 201 204 215 214 215 213 197 192 207 222 233 225 241 251 249 241 242 244 255 266 261 272 274 286 262 248 179 264
265 269 268 264 258 257 255 254 251 247 242 238 237 237 230 233 229 169 208 197 189 180 227 234 285 242 205 204 209 207 211 216 216 208 218 230 230 213 233 241 249 245 247 245 254 265 262 263 296 208 197 180 167 184
264 265 266 267 261 259 256 252 249 246 243 237 236 236 235 228 213 195 195 192 178 153 208 234 234 348 309 178 197 206 193 199 210 222 218 238 228 212 238 247 259 265 251 255 260 274 266 241 232 152 148 130 106 351
268 264 262 265 264 259 258 255 251 247 242 238 236 239 239 235 229 218 173 155 145 156 193 215 212 275 211 171 195 184 184 196 204 215 228 235 230 220 243 248 257 254 259 266 263 158 340 111 130 127 101 71 310 310
271 263 264 262 261 261 261 257 252 247 242 240 240 241 245 225 208 179 171 174 181 160 200 192 185 226 148 136 111 180 198 207 165 219 226 197 218 220 229 240 243 252 251 222 122 115 118 160 144 141 121 269 287 305
262 258 259 258 259 255 257 260 258 248 241 235 225 198 221 193 139 145 181 199 195 187 190 183 112 177 177 170 185 171 199 217 206 217 146 224 240 246 221 240 90 121 118 140 148 209 187 205 198 227 251 267 279 305
255 254 255 254 253 257 247 252 252 248 235 192 190 207 38 166 110 174 196 197 150 193 170 139 188 165 204 159 188 225 199 196 219 189 207 215 250 235 151 132 112 111 110 84 77 84 77 89 230 278 281 297 309 305
259 259 258 263 261 250 248 244 234 219 202 176 129 112 172 179 212 190 174 152 187 202 165 160 181 185 159 154 168 175 202 197 233 123 201 244 240 115 134 133 102 84 81 84 55 98 84 294 298 289 293 292 287 283
272 260 253 261 258 249 238 236 239 208 157 107 185 171 212 174 200 194 168 179 176 171 175 168 162 146 150 193 179 178 222 211 110 186 222 232 115 115 128 125 112 85 80 73 29 355 335 299 301 288 288 274 273 276
274 270 264 258 251 245 236 233 229 222 179 187 190 200 199 196 212 178 176 161 196 160 155 142 127 159 163 173 169 201 139 155 196 214 226 225 160 142 128 103 134 151 99 18 322 309 296 298 296 290 274 279 282 276
275 261 257 263 250 237 233 227 220 196 238 202 180 216 203 104 328 9 300 130 128 141 137 109 80 125 151 172 186 114 166 227 220 217 221 137 142 145 147 144 144 172 318 301 296 299 295 294 292 293 286 278 268 266
272 315 313 266 232 219 224 218 196 160 213 237 109 134 75 138 262 211 187 140 201 140 103 84 125 145 194 183 168 208 192 213 218 201 141 139 152 151 151 164 167 204 240 267 279 271 292 290 279 286 300 279 270 254
60 36 336 360 94 55 88 125 95 63 50 96 93 18 40 10 126 144 171 144 164 189 148 130 156 194 109 176 204 187 210 240 151 165 152 131 156 162 166 158 169 218 270 268 272 271 264 283 290 283 304 315 300 281
43 323 337 33 109 69 45 20 82 74 74 10 184 54 62 86 129 67 15 36 155 122 152 175 122 155 188 180 226 210 152 111 55 134 147 149 151 173 183 147 157 225 268 273 260 284 284 313 323 312 296 292 298 306
20 10 345 102 82 86 69 39 5 104 88 17 17 41 19 48 43 35 334 19 35 30 112 123 159 198 225 228 272 164 147 160 161 167 153 160 188 184 171 182 229 222 237 253 255 316 316 285 282 311 311 314 322 340
82 35 49 45 51 76 80 32 1 88 113 125 63 48 57 27 322 28 22 19 32 60 144 202 223 56 105 105 299 165 127 132 126 118 135 187 189 176 181 166 152 144 186 22 288 313 349 356 1 344 335 342 346 350
43 354 29 61 59 56 77 47 54 71 107 71 338 33 38 9 41 28 31 341 242 179 203 127 165 44 17 21 3 338 125 127 148 171 172 166 174 178 154 169 173 143 124 89 1 342 8 3 343 349 346 352 349 346
324 27 58 46 81 56 70 10 95 83 68 110 73 46 44 22 352 9 299 45 41 63 57 111 107 128 155 198 317 2 104 103 91 105 87 114 139 163 169 161 156 164 184 191 278 322 328 333 340 339 339 335 338 329
28 35 54 22 81 44 45 23 79 14 109 179 59 86 55 18 333 334 16 10 341 14 4 34 39 269 202 253 206 50 117 124 131 148 159 155 143 171 163 175 176 173 198 199 236 279 296 319 325 331 330 334 335 329
29 46 36 43 33 100 11 32 70 87 54 47 110 132 171 303 335 183 224 249 205 322 214 207 198 126 48 26 53 259 201 140 127 162 200 156 163 200 201 200 196 211 220 263 264 280 291 301 319 321 324 325 323 319
71 357 18 12 3 45 40 17 4 80 90 330 88 73 307 333 144 121 198 263 238 223 195 172 90 55 136 228 295 259 203 178 155 167 226 197 168 143 201 223 231 227 186 211 230 237 268 280 291 305 308 306 305 307
68 321 48 285 334 59 336 71 26 56 58 77 20 311 338 71 62 339 268 259 248 208 189 184 170 139 239 204 148 182 222 186 186 181 236 194 197 198 211 226 252 260 189 200 200 236 265 276 283 296 296 295 289 292
62 340 334 246 170 127 68 29 58 84 79 100 277 20 57 69 294 266 292 239 242 236 206 179 174 173 180 188 234 246 210 173 186 175 91 206 222 213 208 221 240 248 172 188 199 214 249 274 282 280 282 285 271 268
121 22 61 311 20 9 126 61 51 64 273 251 82 47 122 162 210 249 220 273 250 316 287 231 197 174 174 199 208 134 140 168 286 288 273 246 233 225 220 230 231 234 207 206 216 223 232 247 257 265 268 271 279 264
39 327 27 5 5 41 59 108 205 249 270 112 118 298 269 245 243 292 343 332 313 96 125 151 206 34 34 30 56 109 129 150 66 2 346 315 334 323 224 233 243 240 241 246 255 247 236 236 243 246 254 258 270 278
352 1 2 28 55 12 267 168 240 272 281 333 318 288 271 273 254 251 292 340 40 30 233 231 179 140 164 147 331 320 251 195 186 177 203 243 235 254 293 284 272 258 244 243 257 270 280 290 308 311 287 280 272 275
318 3 32 45 161 258 250 295 311 318 1 349 320 163 254 306 304 223 242 231 264 247 125 74 80 224 184 191 190 83 311 284 222 239 244 264 272 268 265 259 248 239 232 236 245 249 260 264 251 263 269 271 271 264
6 61 44 358 317 279 31 49 6 51 334 29 333 296 300 310 1 307 77 117 1 286 257 213 216 243 222 252 253 259 248 281 269 258 254 253 258 256 259 258 244 225 234 243 240 242 238 244 259 258 264 270 269 268
257 227 235 285 319 7 11 352 20 358 27 27 353 286 254 250 117 288 323 206 208 224 249 247 260 269 271 258 257 273 269 269 280 288 284 275 269 266 263 250 241 231 238 247 248 244 247 248 254 259 262 263 266 267